DW0427 Weather Reports


time (UTC)temp
C
wind
direction
speed
KPH
gust
KPH
rain 1hr
cm
rain 24hr
cm
rain mn
cm
humidity
%
barometer
mb
20260506051408 4 45 4.8 6.4 0.00 0.00 0.00 79 1014.8
20260506051208 4 45 3.2 6.4 0.00 0.00 0.00 79 1014.8
20260506051009 4 45 3.2 6.4 0.00 0.00 0.00 79 1014.8
20260506050808 5 45 3.2 6.4 0.00 0.00 0.00 79 1014.8
20260506050408 5 45 1.6 6.4 0.00 0.00 0.00 79 1014.8
20260506050208 5 45 1.6 6.4 0.00 0.00 0.00 78 1014.9
20260506045008 5 45 4.8 8.0 0.00 0.00 0.00 78 1014.8
20260506044808 5 45 4.8 8.0 0.00 0.00 0.00 78 1014.8
20260506044608 5 45 4.8 8.0 0.00 0.00 0.00 78 1014.8
20260506044408 5 45 3.2 8.0 0.00 0.00 0.00 78 1014.8
20260506044009 5 45 1.6 8.0 0.00 0.00 0.00 78 1014.8
20260506043808 5 45 1.6 8.0 0.00 0.00 0.00 78 1014.8
20260506043407 5 45 1.6 6.4 0.00 0.00 0.00 78 1014.9
20260506043008 5 45 1.6 6.4 0.00 0.00 0.00 78 1014.9
20260506042808 5 45 1.6 6.4 0.00 0.00 0.00 78 1014.9
20260506042608 5 45 1.6 6.4 0.00 0.00 0.00 77 1014.9
20260506042408 5 45 1.6 4.8 0.00 0.00 0.00 77 1014.9
20260506042208 5 45 1.6 4.8 0.00 0.00 0.00 77 1015.0
20260506042007 5 45 1.6 4.8 0.00 0.00 0.00 77 1015.0
20260506041808 5 45 3.2 4.8 0.00 0.00 0.00 77 1014.9
20260506041608 5 45 3.2 4.8 0.00 0.00 0.00 77 1015.0
20260506041408 5 45 3.2 4.8 0.00 0.00 0.00 77 1015.0
20260506041208 5 45 3.2 4.8 0.00 0.00 0.00 76 1015.0
20260506041008 5 45 1.6 4.8 0.00 0.00 0.00 77 1015.0
20260506040808 5 45 1.6 4.8 0.00 0.00 0.00 76 1015.1
20260506040607 5 45 1.6 4.8 0.00 0.00 0.00 76 1015.1
20260506040205 5 45 0.0 4.8 0.00 0.00 0.00 76 1015.1
20260506040007 5 45 0.0 3.2 0.00 0.00 0.00 76 1015.1
20260506035805 5 45 1.6 1.6 0.00 0.00 0.00 76 1015.1
20260506035608 5 45 1.6 3.2 0.00 0.00 0.00 76 1015.1
20260506035405 5 45 1.6 3.2 0.00 0.00 0.00 76 1015.1
20260506035209 5 45 1.6 3.2 0.00 0.00 0.00 76 1015.2
20260506034808 5 45 1.6 4.8 0.00 0.00 0.00 76 1015.2
20260506034605 5 45 1.6 4.8 0.00 0.00 0.00 76 1015.2
20260506034408 5 45 1.6 4.8 0.00 0.00 0.00 76 1015.2
20260506034205 5 45 1.6 4.8 0.00 0.00 0.00 76 1015.2
20260506034008 5 45 1.6 4.8 0.00 0.00 0.00 76 1015.2
20260506033809 5 45 1.6 3.2 0.00 0.00 0.00 76 1015.2
20260506033608 5 45 1.6 3.2 0.00 0.00 0.00 76 1015.3
20260506033408 5 45 3.2 4.8 0.00 0.00 0.00 76 1015.3
20260506033008 5 45 3.2 6.4 0.00 0.00 0.00 76 1015.3
20260506032808 5 45 1.6 6.4 0.00 0.00 0.00 76 1015.4
20260506032205 5 45 1.6 4.8 0.00 0.00 0.00 76 1015.4
20260506032006 5 45 1.6 3.2 0.00 0.00 0.00 76 1015.4
20260506031807 5 45 1.6 3.2 0.00 0.00 0.00 76 1015.4
20260506031605 5 45 1.6 4.8 0.00 0.00 0.00 76 1015.3
20260506031408 5 45 3.2 4.8 0.00 0.00 0.00 76 1015.3
20260506031205 5 45 3.2 4.8 0.00 0.00 0.00 76 1015.4
20260506031008 5 45 3.2 4.8 0.00 0.00 0.00 76 1015.4
20260506030805 5 45 3.2 4.8 0.00 0.00 0.00 75 1015.4
20260506030608 6 45 3.2 4.8 0.00 0.00 0.00 75 1015.3
20260506030405 6 45 3.2 4.8 0.00 0.00 0.00 75 1015.4
20260506030208 6 45 3.2 4.8 0.00 0.00 0.00 75 1015.4
20260506030005 6 45 1.6 4.8 0.00 0.00 0.00 75 1015.5
20260506025808 6 45 1.6 4.8 0.00 0.00 0.00 75 1015.5
20260506025408 6 45 1.6 4.8 0.00 0.00 0.00 75 1015.5
20260506024808 6 45 1.6 4.8 0.00 0.00 0.00 75 1015.5
20260506024608 6 45 1.6 4.8 0.00 0.00 0.00 75 1015.5
20260506024408 6 45 1.6 4.8 0.00 0.00 0.00 75 1015.5
20260506024208 6 45 1.6 4.8 0.00 0.00 0.00 75 1015.5
20260506024008 6 45 1.6 4.8 0.00 0.00 0.00 75 1015.5
20260506023808 6 45 3.2 6.4 0.00 0.00 0.00 75 1015.6
20260506023607 6 45 3.2 6.4 0.00 0.00 0.00 75 1015.6
20260506023208 6 45 3.2 6.4 0.00 0.00 0.00 74 1015.5
20260506023008 6 45 3.2 6.4 0.00 0.00 0.00 74 1015.5
20260506022808 6 45 3.2 6.4 0.00 0.00 0.00 74 1015.5
20260506022607 6 45 3.2 6.4 0.00 0.00 0.00 74 1015.5
20260506022208 6 45 4.8 6.4 0.00 0.00 0.00 74 1015.5
20260506022008 6 45 4.8 8.0 0.00 0.00 0.00 74 1015.5
20260506021808 6 45 4.8 8.0 0.00 0.00 0.00 74 1015.5
20260506021608 6 45 6.4 8.0 0.00 0.00 0.00 73 1015.5
20260506021408 6 45 6.4 8.0 0.00 0.00 0.00 73 1015.4
20260506021208 6 46 6.4 12.9 0.00 0.00 0.00 73 1015.4
20260506021008 6 46 6.4 12.9 0.00 0.00 0.00 73 1015.4
20260506020808 6 46 6.4 12.9 0.00 0.00 0.00 73 1015.4
20260506020608 6 46 4.8 12.9 0.00 0.00 0.00 73 1015.5
20260506020208 6 45 4.8 11.3 0.00 0.00 0.00 73 1015.5
20260506020008 6 45 4.8 9.7 0.00 0.00 0.00 72 1015.6
20260506015808 6 45 4.8 8.0 0.00 0.00 0.00 73 1015.7
20260506015608 6 46 6.4 8.0 0.00 0.00 0.00 73 1015.8
20260506015408 6 46 6.4 9.7 0.00 0.00 0.00 72 1015.8
20260506015208 6 46 8.0 12.9 0.00 0.00 0.00 73 1015.7
20260506015007 6 45 8.0 12.9 0.00 0.00 0.00 72 1015.8
20260506014808 6 46 8.0 12.9 0.00 0.00 0.00 72 1015.7
20260506014608 6 45 8.0 12.9 0.00 0.00 0.00 72 1015.7
20260506014408 6 46 8.0 12.9 0.00 0.00 0.00 72 1015.7
20260506014208 6 46 8.0 12.9 0.00 0.00 0.00 73 1015.6
20260506014009 6 46 8.0 12.9 0.00 0.00 0.00 73 1015.6
20260506013808 6 45 8.0 12.9 0.00 0.00 0.00 73 1015.7
20260506013608 6 45 6.4 12.9 0.00 0.00 0.00 72 1015.7
20260506013408 6 45 6.4 12.9 0.00 0.00 0.00 72 1015.7
20260506013008 7 45 4.8 12.9 0.00 0.00 0.00 72 1015.7
20260506012808 7 46 3.2 11.3 0.00 0.00 0.00 73 1015.7
20260506012608 7 46 3.2 11.3 0.00 0.00 0.00 73 1015.9
20260506012408 7 46 3.2 11.3 0.00 0.00 0.00 73 1015.8
20260506012207 7 46 3.2 9.7 0.00 0.00 0.00 73 1015.9
20260506011808 7 46 4.8 9.7 0.00 0.00 0.00 74 1015.9
20260506011608 7 46 4.8 9.7 0.00 0.00 0.00 73 1015.8
20260506011408 7 46 6.4 11.3 0.00 0.00 0.00 73 1016.0
20260506011007 7 45 6.4 11.3 0.00 0.00 0.00 73 1015.9
20260506010808 7 46 8.0 11.3 0.00 0.00 0.00 73 1015.9
20260506010608 7 45 8.0 11.3 0.00 0.00 0.00 73 1015.8
20260506010208 7 46 9.7 12.9 0.00 0.00 0.00 74 1015.8
20260506010008 7 45 9.7 12.9 0.00 0.00 0.00 74 1015.8
20260506005808 7 45 9.7 16.1 0.00 0.00 0.00 74 1015.8
20260506005622 7 46 9.7 16.1 0.00 0.00 0.00 74 1015.9
20260506005408 7 45 11.3 16.1 0.00 0.00 0.00 74 1015.9
20260506005208 7 46 11.3 16.1 0.00 0.00 0.00 74 1015.9
20260506005007 7 46 11.3 16.1 0.00 0.00 0.00 74 1015.9
20260506004608 7 45 9.7 20.9 0.00 0.00 0.00 75 1016.0
20260506004408 7 46 9.7 20.9 0.00 0.00 0.00 76 1015.9
20260506004008 7 46 8.0 20.9 0.00 0.00 0.00 76 1015.9
20260506003808 7 46 8.0 20.9 0.00 0.00 0.00 77 1015.9
20260506003608 7 46 8.0 17.7 0.00 0.00 0.00 79 1015.8
20260506003407 7 45 8.0 14.5 0.00 0.00 0.00 80 1015.8
20260506003208 7 46 6.4 14.5 0.00 0.00 0.00 81 1015.8
20260506002608 7 45 4.8 14.5 0.00 0.00 0.00 84 1015.8
20260506002408 7 45 4.8 14.5 0.00 0.00 0.00 84 1015.8
20260506002208 7 45 4.8 14.5 0.00 0.00 0.00 85 1015.8
20260506002007 7 45 3.2 14.5 0.00 0.00 0.00 86 1015.8
20260506001807 7 45 3.2 12.9 0.00 0.00 0.00 86 1015.8
20260506001607 7 45 3.2 6.4 0.00 0.00 0.00 86 1015.8
20260506001407 7 45 3.2 6.4 0.00 0.00 0.00 86 1015.8
20260506001208 6 45 1.6 6.4 0.00 0.00 0.00 86 1015.7
20260506001008 6 45 1.6 6.4 0.00 0.00 0.00 86 1015.7
20260506000608 6 45 1.6 4.8 0.00 0.00 0.00 86 1015.7
20260506000408 6 45 1.6 4.8 0.00 0.00 0.00 86 1015.7
20260506000208 6 45 1.6 4.8 0.00 0.00 0.00 86 1015.8
20260506000008 7 45 1.6 4.8 0.00 0.00 0.00 86 1015.7
20260505235808 7 45 1.6 4.8 0.00 0.00 0.00 86 1015.8
20260505235608 7 45 1.6 4.8 0.00 0.00 0.00 86 1015.7
20260505235408 7 45 1.6 3.2 0.00 0.00 0.00 86 1015.8
20260505235208 7 45 3.2 4.8 0.00 0.00 0.00 86 1015.7
20260505235008 7 45 3.2 4.8 0.00 0.00 0.00 86 1015.7
20260505234808 7 45 3.2 4.8 0.00 0.00 0.00 86 1015.7
20260505234608 7 45 1.6 4.8 0.00 0.00 0.00 86 1015.8
20260505234209 7 45 1.6 4.8 0.00 0.00 0.00 85 1015.7
20260505234008 7 45 1.6 4.8 0.00 0.00 0.00 85 1015.7
20260505233808 7 45 0.0 4.8 0.00 0.00 0.00 85 1015.8
20260505233607 7 45 0.0 4.8 0.00 0.00 0.00 85 1015.8
20260505233408 7 45 0.0 3.2 0.00 0.00 0.00 85 1015.8
20260505233208 7 45 0.0 3.2 0.00 0.00 0.00 85 1015.8
20260505232808 7 0 0.0 0.0 0.00 0.00 0.00 85 1015.7
20260505232608 7 0 0.0 0.0 0.00 0.00 0.00 85 1015.6
20260505232408 7 0 0.0 0.0 0.00 0.00 0.00 85 1015.6
20260505231808 7 0 0.0 0.0 0.00 0.00 0.00 85 1015.7
20260505231608 7 0 0.0 0.0 0.00 0.00 0.00 84 1015.8
20260505231207 7 0 0.0 0.0 0.00 0.00 0.00 84 1015.7
20260505231008 7 0 0.0 0.0 0.00 0.00 0.00 84 1015.9
20260505230808 7 0 0.0 0.0 0.00 0.00 0.00 84 1015.8
20260505230608 7 0 0.0 0.0 0.00 0.00 0.00 84 1015.9
20260505230407 7 0 0.0 0.0 0.00 0.00 0.00 84 1015.9
20260505230208 7 0 0.0 0.0 0.00 0.00 0.00 84 1015.7
20260505230008 7 0 0.0 0.0 0.00 0.00 0.00 84 1015.9
20260505225808 7 0 0.0 0.0 0.00 0.00 0.00 84 1015.8
20260505225608 7 0 0.0 0.0 0.00 0.00 0.00 84 1015.7
20260505225407 7 0 0.0 0.0 0.00 0.00 0.00 83 1015.8
20260505225207 7 0 0.0 0.0 0.00 0.00 0.00 83 1015.8
20260505224807 7 0 0.0 0.0 0.00 0.00 0.00 84 1015.9
20260505224607 7 0 0.0 0.0 0.00 0.00 0.00 84 1015.9
20260505224408 7 0 0.0 0.0 0.00 0.00 0.00 84 1016.0
20260505224208 7 0 0.0 0.0 0.00 0.00 0.00 83 1016.0
20260505224008 7 0 0.0 0.0 0.00 0.00 0.00 83 1016.0
20260505223808 7 0 0.0 0.0 0.00 0.00 0.00 83 1016.0
20260505223608 7 0 0.0 0.0 0.00 0.00 0.00 83 1016.0
20260505223408 7 0 0.0 0.0 0.00 0.00 0.00 83 1016.1
20260505223007 7 0 0.0 0.0 0.00 0.00 0.00 83 1016.1
20260505222807 7 0 0.0 0.0 0.00 0.00 0.00 83 1016.1
20260505222607 7 0 0.0 0.0 0.00 0.00 0.00 83 1016.1
20260505222407 7 0 0.0 0.0 0.00 0.00 0.00 82 1016.1
20260505222207 8 0 0.0 0.0 0.00 0.00 0.00 82 1016.1
20260505222007 8 0 0.0 0.0 0.00 0.00 0.00 82 1016.1
20260505221807 8 0 0.0 0.0 0.00 0.00 0.00 82 1016.0
20260505221607 8 0 0.0 0.0 0.00 0.00 0.00 82 1016.0
20260505221407 8 0 0.0 0.0 0.00 0.00 0.00 82 1016.1
20260505221208 8 0 0.0 0.0 0.00 0.00 0.00 82 1016.1
20260505221007 8 0 0.0 0.0 0.00 0.00 0.00 82 1016.1
20260505220807 8 0 0.0 0.0 0.00 0.00 0.00 82 1016.1
20260505220608 8 0 0.0 0.0 0.00 0.00 0.00 82 1016.1
20260505220407 8 0 0.0 0.0 0.00 0.00 0.00 82 1016.1
20260505220008 8 0 0.0 0.0 0.00 0.00 0.00 81 1016.1
20260505215807 8 0 0.0 0.0 0.00 0.00 0.00 81 1016.1
20260505215607 8 0 0.0 0.0 0.00 0.00 0.00 81 1016.1
20260505215407 8 0 0.0 0.0 0.00 0.00 0.00 81 1016.0
20260505215207 8 0 0.0 0.0 0.00 0.00 0.00 81 1016.0
20260505214808 8 0 0.0 0.0 0.00 0.00 0.00 80 1016.0
20260505214408 8 0 0.0 0.0 0.00 0.00 0.00 80 1016.0
20260505214008 8 0 0.0 0.0 0.00 0.00 0.00 80 1016.1
20260505213808 8 0 0.0 0.0 0.00 0.00 0.00 80 1016.1
20260505213208 8 45 1.6 3.2 0.00 0.00 0.00 79 1016.0
20260505213008 8 45 1.6 3.2 0.00 0.00 0.00 78 1016.1
20260505212808 8 45 1.6 3.2 0.00 0.00 0.00 78 1016.0
20260505212608 8 45 1.6 3.2 0.00 0.00 0.00 78 1016.0
20260505212208 8 45 1.6 3.2 0.00 0.00 0.00 78 1016.0
20260505212008 8 45 1.6 3.2 0.00 0.00 0.00 78 1016.1
20260505211808 9 45 1.6 3.2 0.00 0.00 0.00 78 1016.1
20260505211608 9 45 1.6 3.2 0.00 0.00 0.00 77 1016.0
20260505211408 9 45 1.6 3.2 0.00 0.00 0.00 77 1016.0
20260505211208 9 45 1.6 3.2 0.00 0.00 0.00 77 1016.0
20260505211008 9 45 1.6 3.2 0.00 0.00 0.00 77 1016.1
20260505210808 9 45 1.6 4.8 0.00 0.00 0.00 76 1016.2
20260505210408 9 45 1.6 4.8 0.00 0.00 0.00 76 1016.0
20260505210007 9 45 1.6 4.8 0.00 0.00 0.00 76 1016.1
20260505205808 9 45 1.6 3.2 0.00 0.00 0.00 76 1016.2
20260505205608 9 45 0.0 3.2 0.00 0.00 0.00 75 1016.2
20260505205408 9 45 0.0 3.2 0.00 0.00 0.00 75 1016.2
20260505204608 10 45 0.0 3.2 0.00 0.00 0.00 73 1016.2
20260505204408 10 45 1.6 3.2 0.00 0.00 0.00 73 1016.3
20260505204007 10 45 1.6 3.2 0.00 0.00 0.00 73 1016.1
20260505203807 10 45 1.6 3.2 0.00 0.00 0.00 73 1016.0
20260505203607 10 45 1.6 3.2 0.00 0.00 0.00 72 1016.0
20260505203407 10 45 1.6 3.2 0.00 0.00 0.00 72 1016.0
20260505203207 10 45 0.0 3.2 0.00 0.00 0.00 72 1016.0
20260505203007 10 45 0.0 3.2 0.00 0.00 0.00 72 1016.1
20260505202808 10 45 0.0 3.2 0.00 0.00 0.00 72 1016.1
20260505202608 10 45 0.0 1.6 0.00 0.00 0.00 72 1016.0
20260505202408 10 45 0.0 1.6 0.00 0.00 0.00 72 1016.1
20260505202208 10 45 1.6 1.6 0.00 0.00 0.00 72 1016.2
20260505202008 10 45 1.6 3.2 0.00 0.00 0.00 72 1016.1
20260505201608 10 45 1.6 3.2 0.00 0.00 0.00 72 1016.1
20260505201407 10 45 1.6 4.8 0.00 0.00 0.00 72 1016.0
20260505201007 10 45 1.6 4.8 0.00 0.00 0.00 72 1015.9
20260505200607 10 45 1.6 4.8 0.00 0.00 0.00 71 1015.9
20260505200407 10 45 1.6 3.2 0.00 0.00 0.00 71 1016.0
20260505200207 10 45 1.6 3.2 0.00 0.00 0.00 71 1016.0
20260505200007 10 45 1.6 3.2 0.00 0.00 0.00 71 1016.0
20260505195808 10 45 1.6 3.2 0.00 0.00 0.00 71 1016.0
20260505195608 10 45 1.6 4.8 0.00 0.00 0.00 71 1016.0
20260505195408 10 45 3.2 4.8 0.00 0.00 0.00 71 1016.0
20260505195208 10 45 3.2 4.8 0.00 0.00 0.00 71 1016.0
20260505194808 10 45 3.2 6.4 0.00 0.00 0.00 71 1016.0
20260505194408 10 45 3.2 6.4 0.00 0.00 0.00 70 1016.0
20260505194208 11 45 3.2 8.0 0.00 0.00 0.00 71 1016.0
20260505194008 11 46 3.2 8.0 0.00 0.00 0.00 70 1015.9
20260505193807 11 45 1.6 8.0 0.00 0.00 0.00 70 1016.0
20260505193607 11 46 1.6 8.0 0.00 0.00 0.00 70 1015.9
20260505193407 11 46 0.0 8.0 0.00 0.00 0.00 70 1015.9
20260505193207 11 45 0.0 4.8 0.00 0.00 0.00 70 1016.1
20260505193009 11 45 0.0 4.8 0.00 0.00 0.00 70 1016.1
20260505192807 11 45 0.0 4.8 0.00 0.00 0.00 70 1016.1
20260505192607 11 0 0.0 0.0 0.00 0.00 0.00 70 1016.1
20260505192408 11 0 0.0 0.0 0.00 0.00 0.00 70 1016.0
20260505192208 11 0 0.0 0.0 0.00 0.00 0.00 70 1016.0
20260505192008 11 0 0.0 0.0 0.00 0.00 0.00 69 1015.9
20260505191808 11 0 0.0 0.0 0.00 0.00 0.00 70 1015.8
20260505191608 11 0 0.0 0.0 0.00 0.00 0.00 69 1015.8
20260505191408 11 0 0.0 0.0 0.00 0.00 0.00 69 1015.8
20260505191208 11 0 0.0 0.0 0.00 0.00 0.00 69 1015.9
20260505190808 11 45 1.6 1.6 0.00 0.00 0.00 71 1015.6
20260505190608 11 45 1.6 3.2 0.00 0.00 0.00 71 1015.5
20260505190408 11 45 3.2 4.8 0.00 0.00 0.00 71 1015.4
20260505190208 11 45 3.2 4.8 0.00 0.00 0.00 70 1015.5
20260505190008 11 45 3.2 4.8 0.00 0.00 0.00 70 1015.5
20260505185808 11 45 3.2 4.8 0.00 0.00 0.00 70 1015.5
20260505185408 11 45 3.2 6.4 0.00 0.00 0.00 70 1015.7
20260505185008 11 45 4.8 6.4 0.00 0.00 0.00 69 1015.7
20260505184808 11 45 4.8 6.4 0.00 0.00 0.00 69 1015.7
20260505184608 11 45 4.8 6.4 0.00 0.00 0.00 69 1015.7
20260505184408 11 45 4.8 6.4 0.00 0.00 0.00 70 1015.7
20260505184208 11 45 4.8 6.4 0.00 0.00 0.00 70 1015.8
20260505184008 11 45 4.8 6.4 0.00 0.00 0.00 70 1015.7
20260505183808 11 45 4.8 6.4 0.00 0.00 0.00 71 1015.8
20260505183608 11 45 4.8 6.4 0.00 0.00 0.00 70 1015.9
20260505183408 11 45 4.8 9.7 0.00 0.00 0.00 70 1015.8
20260505183208 11 45 4.8 9.7 0.00 0.00 0.00 69 1015.8
20260505183008 11 45 4.8 9.7 0.00 0.00 0.00 69 1015.8
20260505182808 11 45 4.8 9.7 0.00 0.00 0.00 69 1015.8
20260505182608 11 45 4.8 9.7 0.00 0.00 0.00 67 1015.7
20260505182407 11 46 4.8 8.0 0.00 0.00 0.00 66 1015.8
20260505182207 11 46 6.4 9.7 0.00 0.00 0.00 65 1015.8
20260505182008 11 45 6.4 9.7 0.00 0.00 0.00 66 1015.7
20260505181808 11 46 6.4 9.7 0.00 0.00 0.00 64 1015.7
20260505181608 11 46 6.4 9.7 0.00 0.00 0.00 63 1015.7
20260505181407 12 46 6.4 9.7 0.00 0.00 0.00 64 1015.9
20260505181207 12 46 6.4 11.3 0.00 0.00 0.00 64 1015.8
20260505181008 12 45 6.4 11.3 0.00 0.00 0.00 64 1015.8
20260505180808 12 45 6.4 11.3 0.00 0.00 0.00 63 1015.8
20260505180607 12 45 6.4 11.3 0.00 0.00 0.00 64 1015.9
20260505180408 12 45 8.0 12.9 0.00 0.00 0.00 65 1015.9
20260505180207 12 45 8.0 12.9 0.00 0.00 0.00 65 1015.9
20260505175807 12 45 8.0 12.9 0.00 0.00 0.00 62 1015.9
20260505175607 12 45 6.4 14.5 0.00 0.00 0.00 62 1016.0
20260505175207 12 45 6.4 14.5 0.00 0.00 0.00 62 1015.9
20260505175007 12 45 4.8 14.5 0.00 0.00 0.00 64 1016.0
20260505174607 12 45 4.8 9.7 0.00 0.00 0.00 65 1015.9
20260505174407 12 45 4.8 9.7 0.00 0.00 0.00 66 1015.9
20260505174007 12 45 4.8 8.0 0.00 0.00 0.00 65 1016.0
20260505173807 12 46 4.8 8.0 0.00 0.00 0.00 65 1016.0
20260505173607 12 45 6.4 8.0 0.00 0.00 0.00 65 1015.9
20260505173407 12 45 6.4 9.7 0.00 0.00 0.00 66 1015.9
20260505173207 12 45 6.4 9.7 0.00 0.00 0.00 65 1015.8
20260505173008 12 45 6.4 9.7 0.00 0.00 0.00 66 1015.9
20260505172807 12 46 6.4 9.7 0.00 0.00 0.00 66 1015.9
20260505172607 12 46 8.0 9.7 0.00 0.00 0.00 67 1016.0
20260505172407 12 46 8.0 9.7 0.00 0.00 0.00 66 1016.0
20260505172207 12 46 8.0 12.9 0.00 0.00 0.00 65 1016.0
20260505172008 12 46 8.0 12.9 0.00 0.00 0.00 66 1015.9
20260505171807 12 46 8.0 14.5 0.00 0.00 0.00 66 1015.9
20260505171607 12 46 8.0 14.5 0.00 0.00 0.00 66 1016.0
20260505171408 12 46 8.0 14.5 0.00 0.00 0.00 65 1016.0
20260505171207 12 45 8.0 14.5 0.00 0.00 0.00 65 1016.0
20260505171007 12 45 9.7 14.5 0.00 0.00 0.00 65 1015.9
20260505170807 12 46 9.7 12.9 0.00 0.00 0.00 66 1016.0
20260505170607 12 45 9.7 12.9 0.00 0.00 0.00 65 1016.0
20260505170408 12 46 9.7 12.9 0.00 0.00 0.00 66 1016.0
20260505170207 12 45 9.7 12.9 0.00 0.00 0.00 66 1016.0
20260505165807 12 46 9.7 12.9 0.00 0.00 0.00 66 1016.1
20260505165607 12 46 8.0 12.9 0.00 0.00 0.00 67 1016.1
20260505165207 12 46 9.7 12.9 0.00 0.00 0.00 67 1016.2
20260505165007 12 45 9.7 11.3 0.00 0.00 0.00 67 1016.1
20260505164607 12 45 9.7 12.9 0.00 0.00 0.00 67 1016.1
20260505164407 12 45 9.7 14.5 0.00 0.00 0.00 68 1016.1
20260505164207 12 45 11.3 14.5 0.00 0.00 0.00 68 1016.2
20260505164007 12 45 9.7 16.1 0.00 0.00 0.00 67 1016.2
20260505163807 12 46 11.3 16.1 0.00 0.00 0.00 67 1016.1
20260505163608 12 46 11.3 16.1 0.00 0.00 0.00 67 1016.1
20260505163208 12 45 9.7 17.7 0.00 0.00 0.00 66 1016.0
20260505163009 12 46 9.7 17.7 0.00 0.00 0.00 65 1016.0
20260505162608 12 46 9.7 17.7 0.00 0.00 0.00 66 1016.0
20260505162208 12 46 8.0 16.1 0.00 0.00 0.00 66 1016.0
20260505162008 12 46 8.0 16.1 0.00 0.00 0.00 65 1016.1
20260505161808 12 45 8.0 16.1 0.00 0.00 0.00 65 1016.1
20260505161608 12 45 8.0 16.1 0.00 0.00 0.00 64 1016.0
20260505161408 12 45 6.4 16.1 0.00 0.00 0.00 65 1016.0
20260505161208 12 46 6.4 16.1 0.00 0.00 0.00 64 1016.1
20260505160807 12 46 6.4 14.5 0.00 0.00 0.00 64 1016.1
20260505160608 12 46 6.4 14.5 0.00 0.00 0.00 63 1016.1
20260505160208 12 46 8.0 14.5 0.00 0.00 0.00 64 1016.2
20260505153208 12 46 4.8 11.3 0.00 0.00 0.00 64 1016.2
20260505152808 12 46 4.8 11.3 0.00 0.00 0.00 64 1016.1
20260505152608 12 46 3.2 11.3 0.00 0.00 0.00 64 1016.0
20260505152408 12 46 3.2 9.7 0.00 0.00 0.00 65 1016.1
20260505152208 12 46 3.2 9.7 0.00 0.00 0.00 64 1016.0
20260505152008 12 46 3.2 8.0 0.00 0.00 0.00 68 1016.0
20260505151208 12 45 1.6 6.4 0.00 0.00 0.00 64 1016.2
20260505151008 12 45 1.6 6.4 0.00 0.00 0.00 66 1016.2
20260505150808 12 45 1.6 6.4 0.00 0.00 0.00 67 1016.2
20260505150607 12 45 3.2 6.4 0.00 0.00 0.00 64 1016.2
20260505150407 12 45 3.2 4.8 0.00 0.00 0.00 63 1016.2
20260505150207 12 45 3.2 4.8 0.00 0.00 0.00 63 1016.3
20260505140608 11 46 6.4 11.3 0.00 0.00 0.00 69 1016.2
20260505140408 11 46 6.4 12.9 0.00 0.00 0.00 69 1016.2
20260505140208 11 45 6.4 12.9 0.00 0.00 0.00 68 1016.2
20260505130207 12 46 3.2 8.0 0.00 0.00 0.00 73 1016.4
20260505124807 11 46 8.0 11.3 0.00 0.00 0.00 77 1016.5
20260505124607 11 46 8.0 12.9 0.00 0.00 0.00 76 1016.5
20260505124407 11 46 8.0 12.9 0.00 0.00 0.00 77 1016.5
20260505124008 10 45 6.4 14.5 0.00 0.00 0.00 78 1016.6
20260505123808 10 46 6.4 14.5 0.00 0.00 0.00 78 1016.6
20260505123607 10 46 4.8 14.5 0.00 0.00 0.00 77 1016.6
20260505123208 10 45 4.8 11.3 0.00 0.00 0.00 76 1016.6
20260505123007 11 45 4.8 9.7 0.00 0.00 0.00 75 1016.7
20260505122807 11 45 4.8 9.7 0.00 0.00 0.00 74 1016.7
20260505122608 11 46 6.4 9.7 0.00 0.00 0.00 74 1016.6
20260505122408 11 46 6.4 12.9 0.00 0.00 0.00 73 1016.6
20260505122208 11 46 6.4 12.9 0.00 0.00 0.00 73 1016.5
20260505122008 11 46 4.8 12.9 0.00 0.00 0.00 73 1016.5
20260505121608 11 45 3.2 12.9 0.00 0.00 0.00 70 1016.5
20260505121408 11 45 3.2 11.3 0.00 0.00 0.00 68 1016.6
20260505121208 11 45 3.2 11.3 0.00 0.00 0.00 68 1016.6
20260505121008 11 45 3.2 9.7 0.00 0.00 0.00 67 1016.7
20260505120808 11 45 4.8 6.4 0.00 0.00 0.00 67 1016.6
20260505120407 11 46 4.8 8.0 0.00 0.00 0.00 68 1016.6
20260505120007 11 45 4.8 8.0 0.00 0.00 0.00 68 1016.5
20260505115807 11 46 4.8 8.0 0.00 0.00 0.00 68 1016.5
20260505115607 11 46 6.4 9.7 0.00 0.00 0.00 67 1016.5
20260505115208 11 46 6.4 9.7 0.00 0.00 0.00 68 1016.6
20260505115008 11 45 6.4 12.9 0.00 0.00 0.00 69 1016.7
20260505114808 11 45 6.4 12.9 0.00 0.00 0.00 71 1016.8
20260505114608 11 45 6.4 12.9 0.00 0.00 0.00 71 1016.7
20260505114408 11 46 6.4 12.9 0.00 0.00 0.00 70 1016.9
20260505114208 11 46 8.0 12.9 0.00 0.00 0.00 71 1016.8
20260505114008 11 46 8.0 12.9 0.00 0.00 0.00 71 1016.8
20260505113808 11 46 9.7 12.9 0.00 0.00 0.00 71 1016.8
20260505113607 11 45 9.7 14.5 0.00 0.00 0.00 70 1016.7
20260505113407 11 46 8.0 14.5 0.00 0.00 0.00 70 1016.7
20260505113207 11 45 8.0 14.5 0.00 0.00 0.00 70 1016.6
20260505113007 11 45 8.0 14.5 0.00 0.00 0.00 71 1016.6
20260505112807 11 45 6.4 14.5 0.00 0.00 0.00 71 1016.9
20260505112607 11 46 6.4 14.5 0.00 0.00 0.00 71 1016.9
20260505112208 11 46 6.4 14.5 0.00 0.00 0.00 70 1016.8
20260505112007 11 45 8.0 12.9 0.00 0.00 0.00 70 1016.9
20260505111807 11 45 8.0 12.9 0.00 0.00 0.00 71 1016.8
20260505111407 11 46 8.0 16.1 0.00 0.00 0.00 72 1016.9
20260505111207 11 46 8.0 17.7 0.00 0.00 0.00 72 1017.0
20260505111008 11 45 8.0 17.7 0.00 0.00 0.00 72 1016.9
20260505110807 11 46 8.0 17.7 0.00 0.00 0.00 71 1016.9
20260505110607 11 45 8.0 17.7 0.00 0.00 0.00 72 1016.9
20260505110208 11 46 9.7 14.5 0.00 0.00 0.00 72 1016.8
20260505102207 11 46 8.0 19.3 0.00 0.00 0.00 70 1016.9
20260505101207 11 46 6.4 12.9 0.00 0.00 0.00 69 1017.0
20260505101007 11 46 4.8 12.9 0.00 0.00 0.00 69 1017.0
20260505100607 11 45 4.8 12.9 0.00 0.00 0.00 70 1017.0
20260505100407 11 45 4.8 12.9 0.00 0.00 0.00 70 1016.8
20260505100207 11 45 3.2 9.7 0.00 0.00 0.00 71 1016.9
20260505100007 11 45 3.2 9.7 0.00 0.00 0.00 71 1016.9
20260505095807 11 45 3.2 9.7 0.00 0.00 0.00 72 1017.0
20260505095607 11 45 3.2 9.7 0.00 0.00 0.00 72 1017.0
20260505095407 11 45 3.2 9.7 0.00 0.00 0.00 72 1016.9
20260505095208 10 45 3.2 8.0 0.00 0.00 0.00 71 1016.9
20260505095008 10 45 4.8 8.0 0.00 0.00 0.00 72 1017.0
20260505094808 10 45 3.2 8.0 0.00 0.00 0.00 72 1017.1
20260505094608 10 45 4.8 8.0 0.00 0.00 0.00 74 1017.0
20260505094407 10 45 4.8 8.0 0.00 0.00 0.00 74 1016.9
20260505094208 10 45 4.8 8.0 0.00 0.00 0.00 74 1016.9
20260505094008 10 45 4.8 11.3 0.00 0.00 0.00 74 1017.1
20260505093608 10 45 6.4 11.3 0.00 0.00 0.00 75 1017.1
20260505093407 10 46 6.4 11.3 0.00 0.00 0.00 75 1017.1
20260505093207 10 46 6.4 12.9 0.00 0.00 0.00 76 1017.1
20260505093007 10 45 6.4 12.9 0.00 0.00 0.00 75 1017.1
20260505092807 10 46 6.4 12.9 0.00 0.00 0.00 75 1017.2
20260505092607 10 46 6.4 12.9 0.00 0.00 0.00 75 1017.2
20260505092207 10 46 8.0 11.3 0.00 0.00 0.00 74 1017.2
20260505092007 10 45 8.0 12.9 0.00 0.00 0.00 75 1017.1
20260505091807 10 45 8.0 16.1 0.00 0.00 0.00 75 1017.1
20260505091608 10 45 8.0 16.1 0.00 0.00 0.00 74 1017.1
20260505091007 10 46 4.8 16.1 0.00 0.00 0.00 74 1017.0
20260505090608 10 45 3.2 11.3 0.00 0.00 0.00 74 1017.2
20260505090407 10 45 3.2 11.3 0.00 0.00 0.00 74 1017.2
20260505090207 10 45 3.2 6.4 0.00 0.00 0.00 74 1017.2
20260505090009 10 45 3.2 6.4 0.00 0.00 0.00 74 1017.0
20260505085607 10 45 4.8 8.0 0.00 0.00 0.00 74 1017.2
20260505085207 10 46 4.8 8.0 0.00 0.00 0.00 76 1017.1
20260505085007 10 46 4.8 8.0 0.00 0.00 0.00 77 1017.0
20260505084807 10 46 3.2 8.0 0.00 0.00 0.00 76 1017.0
20260505084608 10 46 3.2 9.7 0.00 0.00 0.00 76 1017.1
20260505084407 10 46 3.2 9.7 0.00 0.00 0.00 77 1017.0
20260505084208 10 45 3.2 9.7 0.00 0.00 0.00 77 1017.1
20260505084007 10 45 3.2 9.7 0.00 0.00 0.00 76 1017.1
20260505083607 10 45 1.6 6.4 0.00 0.00 0.00 76 1017.1
20260505083007 10 45 3.2 6.4 0.00 0.00 0.00 78 1016.9
20260505082807 10 45 3.2 6.4 0.00 0.00 0.00 79 1016.9
20260505082623 10 45 3.2 6.4 0.00 0.00 0.00 79 1017.0
20260505082408 10 45 3.2 6.4 0.00 0.00 0.00 78 1017.0
20260505082208 10 45 3.2 8.0 0.00 0.00 0.00 78 1017.0
20260505082007 10 46 3.2 9.7 0.00 0.00 0.00 79 1017.0
20260505081808 10 46 4.8 9.7 0.00 0.00 0.00 79 1017.1
20260505081608 10 45 4.8 9.7 0.00 0.00 0.00 79 1017.0
20260505081407 10 45 4.8 9.7 0.00 0.00 0.00 79 1017.0
20260505081207 10 45 4.8 9.7 0.00 0.00 0.00 80 1017.0
20260505081007 10 45 6.4 9.7 0.00 0.00 0.00 80 1017.1
20260505080807 9 45 6.4 11.3 0.00 0.00 0.00 80 1017.1
20260505080607 9 46 6.4 11.3 0.00 0.00 0.00 80 1017.1
20260505080407 9 46 6.4 11.3 0.00 0.00 0.00 80 1017.1
20260505080207 9 46 6.4 11.3 0.00 0.00 0.00 80 1017.1
20260505080007 9 46 4.8 11.3 0.00 0.00 0.00 80 1017.1
20260505075807 9 45 4.8 11.3 0.00 0.00 0.00 80 1017.0
20260505075607 9 46 4.8 11.3 0.00 0.00 0.00 80 1017.1
20260505075407 9 46 4.8 11.3 0.00 0.00 0.00 81 1017.2
20260505075207 9 46 4.8 11.3 0.00 0.00 0.00 81 1017.2
20260505075007 9 46 4.8 11.3 0.00 0.00 0.00 81 1017.2
20260505074808 9 46 4.8 11.3 0.00 0.00 0.00 81 1017.1
20260505074608 9 46 4.8 11.3 0.00 0.00 0.00 81 1017.2
20260505074207 9 45 4.8 9.7 0.00 0.00 0.00 81 1017.2
20260505074007 9 45 4.8 9.7 0.00 0.00 0.00 81 1017.1
20260505073807 9 46 4.8 9.7 0.00 0.00 0.00 81 1017.1
20260505073607 9 45 4.8 9.7 0.00 0.00 0.00 81 1017.1
20260505073207 8 45 4.8 11.3 0.00 0.00 0.00 82 1017.3
20260505073007 8 46 4.8 11.3 0.00 0.00 0.00 82 1017.2
20260505072808 8 46 4.8 11.3 0.00 0.00 0.00 82 1017.1
20260505072608 8 45 4.8 11.3 0.00 0.00 0.00 82 1017.2
20260505072408 8 46 4.8 11.3 0.00 0.00 0.00 82 1017.1
20260505072208 8 46 4.8 9.7 0.00 0.00 0.00 82 1017.2
20260505072008 8 45 4.8 9.7 0.00 0.00 0.00 82 1017.2
20260505071808 8 46 4.8 9.7 0.00 0.00 0.00 82 1017.2
20260505071607 8 45 4.8 9.7 0.00 0.00 0.00 82 1017.1
20260505071407 8 46 4.8 9.7 0.00 0.00 0.00 83 1017.1
20260505071207 8 45 4.8 9.7 0.00 0.00 0.00 83 1017.1
20260505071007 8 45 4.8 9.7 0.00 0.00 0.00 83 1017.2
20260505070607 8 45 3.2 8.0 0.00 0.00 0.00 83 1017.2
20260505070407 8 45 3.2 6.4 0.00 0.00 0.00 84 1017.2
20260505070207 8 45 3.2 6.4 0.00 0.00 0.00 83 1017.2
20260505070007 8 45 3.2 6.4 0.00 0.00 0.00 83 1017.3
20260505065807 8 45 3.2 6.4 0.00 0.00 0.00 83 1017.3
20260505065408 8 45 1.6 6.4 0.00 0.00 0.00 83 1017.2
20260505064808 8 45 0.0 6.4 0.00 0.00 0.00 83 1017.1
20260505064608 8 0 1.6 0.0 0.00 0.00 0.00 84 1017.1
20260505064407 8 45 1.6 3.2 0.00 0.00 0.00 84 1017.1
20260505064207 8 45 1.6 4.8 0.00 0.00 0.00 84 1017.1
20260505063607 8 45 1.6 4.8 0.00 0.00 0.00 84 1017.2
20260505063407 7 45 1.6 4.8 0.00 0.00 0.00 84 1017.3
20260505063207 7 46 1.6 4.8 0.00 0.00 0.00 84 1017.2
20260505063007 7 45 1.6 4.8 0.00 0.00 0.00 84 1017.3
20260505062807 7 45 1.6 4.8 0.00 0.00 0.00 84 1017.2
20260505062607 7 45 1.6 4.8 0.00 0.00 0.00 84 1017.2
20260505062407 7 45 1.6 4.8 0.00 0.00 0.00 84 1017.3
20260505062207 7 45 1.6 4.8 0.00 0.00 0.00 84 1017.2
20260505062007 7 45 0.0 4.8 0.00 0.00 0.00 84 1017.2
20260505061808 7 45 0.0 4.8 0.00 0.00 0.00 84 1017.2
20260505061608 7 45 0.0 3.2 0.00 0.00 0.00 84 1017.2
20260505061408 7 45 1.6 3.2 0.00 0.00 0.00 84 1017.2
20260505061008 7 45 1.6 3.2 0.00 0.00 0.00 84 1017.2
20260505060607 7 45 1.6 4.8 0.00 0.00 0.00 84 1017.1
20260505060407 7 45 1.6 4.8 0.00 0.00 0.00 84 1017.1
20260505060207 7 45 1.6 4.8 0.00 0.00 0.00 84 1017.1
20260505060007 7 45 0.0 4.8 0.00 0.00 0.00 84 1017.1
20260505055807 7 45 0.0 4.8 0.00 0.00 0.00 84 1017.1
20260505055607 7 45 0.0 4.8 0.00 0.00 0.00 84 1017.2
20260505055407 7 45 0.0 4.8 0.00 0.00 0.00 85 1017.1
20260505055207 7 45 0.0 3.2 0.00 0.00 0.00 85 1017.2
20260505055007 7 0 1.6 0.0 0.00 0.00 0.00 84 1017.1
20260505054807 7 0 1.6 0.0 0.00 0.00 0.00 85 1017.1
20260505054607 7 45 1.6 4.8 0.00 0.00 0.00 85 1017.1
20260505054407 7 45 1.6 6.4 0.00 0.00 0.00 85 1017.0
20260505054207 7 45 1.6 6.4 0.00 0.00 0.00 84 1017.0
20260505054007 7 45 1.6 6.4 0.00 0.00 0.00 84 1017.0
20260505053807 7 45 3.2 6.4 0.00 0.00 0.00 84 1017.0
20260505053408 7 45 3.2 4.8 0.00 0.00 0.00 84 1017.0
20260505053207 7 45 3.2 4.8 0.00 0.00 0.00 84 1017.0
20260505053008 7 45 3.2 6.4 0.00 0.00 0.00 84 1017.0
20260505052808 7 45 3.2 6.4 0.00 0.00 0.00 84 1017.0
20260505052608 7 45 3.2 6.4 0.00 0.00 0.00 84 1017.0
20260505052407 7 45 3.2 6.4 0.00 0.00 0.00 84 1017.0
20260505052207 7 45 3.2 8.0 0.00 0.00 0.00 84 1016.9
20260505052007 7 46 3.2 8.0 0.00 0.00 0.00 84 1017.0